[[{"header":{"parameterUnit":"m.s-1","parameterCategory":1,"la1":30.2991,"la2":30.254,"lo1":-89.0895,"lo2":-89.0444,"dy":0.0017,"dx":0.0017,"nx":28,"ny":28,"refTime":"2024-07-06T21:00:00:Z","depth":0,"parameterNumber":2,"parameterNumberName":"U-component_of_WINDS"},"data":[0,0,0,0,0,0,0,0,0,0,0,0,0,0,0,0,0,0,0,0,0,0,0,0,0,0,0,0,0,0,0,0,0,0,0,0,0,0,0,0,0,0,0,0,0,0,0,0,0,0,0,0,0,0,0,0,0,0,-0.0511,-0.051,0,-0.0475,-0.0474,-0.0474,-0.0466,-0.0466,-0.0466,-0.0466,-0.0428,-0.0427,-0.0426,0,0,0,0,0,0,0,0,0,0,0,0,0,-0.0572,-0.0571,-0.0511,-0.051,-0.051,-0.0475,-0.0474,-0.0474,-0.0466,-0.0466,-0.0466,-0.0467,-0.0429,-0.0427,-0.0426,0,0,0,0,0,0,0,0,0,0,0,0,0,-0.0542,-0.0571,-0.0511,-0.0502,-0.05,-0.0475,-0.0474,-0.0473,-0.0466,-0.0466,-0.0466,-0.0467,-0.0429,-0.0427,-0.0426,-0.0406,0,0,-0.042,-0.0419,0,0,0,0,0,0,0,0,-0.0543,-0.0539,-0.0503,-0.0502,-0.0501,-0.0475,-0.0482,-0.0451,-0.0465,-0.0479,-0.0466,-0.0467,-0.0443,-0.044,-0.0433,-0.0404,-0.0403,-0.042,-0.0418,-0.0418,-0.0417,0,0,0,0,0,0,0,-0.0546,-0.0541,-0.0496,-0.0503,-0.0501,-0.0499,-0.0495,-0.0476,-0.0459,-0.0478,-0.0477,-0.0473,-0.0443,-0.0435,-0.0432,-0.0402,-0.042,-0.0418,-0.0417,-0.0416,-0.0357,-0.0356,0,0,0,0,0,0,-0.0549,-0.0543,-0.0497,-0.0495,-0.0524,-0.0498,-0.0493,-0.0483,-0.046,-0.0456,-0.0473,-0.0473,-0.0438,-0.0434,-0.043,-0.0407,-0.0418,-0.0416,-0.0415,-0.0357,-0.0357,-0.0356,0,0,0,0,0,0,-0.0551,-0.0545,-0.0499,-0.0519,-0.0513,-0.0496,-0.0485,-0.0482,-0.0474,-0.0456,-0.0453,-0.0467,-0.0438,-0.0433,-0.0413,-0.0405,-0.0415,-0.0413,-0.0358,-0.0357,-0.0357,-0.0359,0,0,0,0,0,0,-0.0553,-0.0546,-0.0538,-0.0519,-0.0512,-0.0482,-0.0484,-0.0481,-0.0471,-0.047,-0.045,-0.0447,-0.0438,-0.0415,-0.0411,-0.0403,-0.0412,-0.0358,-0.0358,-0.0357,-0.036,-0.0359,-0.0358,0,0,0,0,0,-0.0555,-0.054,-0.0538,-0.0533,-0.0502,-0.0481,-0.0477,-0.0467,-0.047,-0.0462,-0.0451,-0.0448,-0.0407,-0.0413,-0.0408,-0.04,-0.0359,-0.0358,-0.0357,-0.036,-0.0359,-0.0358,0,0,0,0,0,0,-0.0559,-0.0537,-0.0535,-0.0513,-0.0499,-0.048,-0.047,-0.0466,-0.0451,-0.0451,-0.0439,-0.0435,-0.0415,-0.0405,-0.0413,-0.038,-0.0383,-0.0381,-0.0387,-0.0386,-0.0385,-0.0388,-0.041,0,0,0,0,0,-0.0557,-0.0542,-0.0524,-0.0507,-0.05,-0.0486,-0.0477,-0.0471,-0.0456,-0.0449,-0.0436,-0.0422,-0.0406,-0.0395,-0.0379,-0.0358,-0.0354,-0.035,-0.0349,-0.0348,-0.0347,-0.0336,-0.0334,-0.0353,-0.0353,-0.0353,0,0,-0.0554,-0.054,-0.0531,-0.0508,-0.0496,-0.0481,-0.0481,-0.0465,-0.0454,-0.0447,-0.0427,-0.0417,-0.04,-0.0379,-0.0369,-0.037,-0.0341,-0.0347,-0.0347,-0.0345,-0.0335,-0.0333,-0.0331,-0.0352,-0.0353,-0.0353,0,0,-0.054,-0.0528,-0.0513,-0.0501,-0.0484,-0.0475,-0.0471,-0.0453,-0.0446,-0.0426,-0.0421,-0.0407,-0.038,-0.0368,-0.0358,-0.0341,-0.0338,-0.0336,-0.0332,-0.0321,-0.032,-0.0318,-0.0313,-0.0311,-0.0335,-0.0335,-0.0335,0,-0.0537,-0.0515,-0.0505,-0.049,-0.048,-0.0473,-0.0458,-0.0447,-0.0425,-0.0419,-0.042,-0.0386,-0.0374,-0.0351,-0.0347,-0.0339,-0.0335,-0.0339,-0.0321,-0.0319,-0.0318,-0.0312,-0.031,-0.0335,-0.0335,-0.0335,-0.0335,0,-0.0513,-0.0498,-0.0487,-0.0468,-0.0456,-0.0441,-0.0429,-0.0419,-0.0414,-0.0405,-0.0385,-0.037,-0.0352,-0.0346,-0.034,-0.0322,-0.0324,-0.0323,-0.0326,-0.0316,-0.0311,-0.0309,-0.0335,-0.0335,-0.0335,-0.0335,0,0,-0.05,-0.0476,-0.0472,-0.0464,-0.0445,-0.0432,-0.0417,-0.04,-0.0392,-0.0377,-0.0364,-0.0341,-0.0341,-0.033,-0.0323,-0.0314,-0.0303,-0.0315,-0.0314,-0.0313,-0.0283,-0.0283,-0.0281,-0.03,-0.03,-0.0299,-0.0284,0,-0.0484,-0.0457,-0.0448,-0.0426,-0.0412,-0.0406,-0.0393,-0.038,-0.0371,-0.0358,-0.0348,-0.0332,-0.0333,-0.0326,-0.0317,-0.0306,-0.0296,-0.0307,-0.0288,-0.0287,-0.0293,-0.0278,-0.0279,-0.0265,-0.0282,-0.0282,-0.0281,0,-0.0462,-0.0448,-0.0424,-0.0408,-0.0402,-0.039,-0.0374,-0.0361,-0.0347,-0.0341,-0.033,-0.0324,-0.0308,-0.0311,-0.0289,-0.0297,-0.0289,-0.0282,-0.0282,-0.028,-0.0284,-0.0276,-0.0261,-0.0259,-0.0278,-0.0278,-0.0278,0,-0.0456,-0.0431,-0.0414,-0.0406,-0.0387,-0.0379,-0.037,-0.0356,-0.0346,-0.0332,-0.0326,-0.031,-0.0301,-0.0289,-0.0279,-0.0283,-0.0258,-0.0261,-0.0253,-0.0254,-0.0248,-0.0249,-0.0232,-0.0243,-0.0243,-0.0243,-0.0243,0,-0.0439,-0.0425,-0.0411,-0.04,-0.0384,-0.0375,-0.0359,-0.035,-0.0338,-0.0325,-0.0319,-0.0308,-0.0295,-0.0282,-0.0274,-0.0258,-0.0253,-0.0249,-0.0247,-0.0249,-0.025,-0.0244,-0.0245,-0.0242,-0.0242,-0.0242,-0.0242,0,-0.043,-0.042,-0.0401,-0.0384,-0.0379,-0.0369,-0.0354,-0.0344,-0.0335,-0.032,-0.0316,-0.0302,-0.0286,-0.0276,-0.0255,-0.025,-0.0232,-0.023,-0.0237,-0.0237,-0.023,-0.0231,-0.0208,-0.0205,-0.0218,-0.0218,-0.0218,0,-0.042,-0.0409,-0.0392,-0.0383,-0.0375,-0.0361,-0.0352,-0.0342,-0.0332,-0.0316,-0.0307,-0.0291,-0.0278,-0.0254,-0.0242,-0.0226,-0.0224,-0.0217,-0.0222,-0.0225,-0.0225,-0.0226,-0.0225,-0.0217,-0.0217,-0.0217,-0.0217,0,-0.0404,-0.04,-0.0387,-0.0372,-0.0361,-0.0349,-0.0337,-0.033,-0.0318,-0.0308,-0.0292,-0.0282,-0.0262,-0.0246,-0.023,-0.0221,-0.0217,-0.0215,-0.0213,-0.0216,-0.022,-0.0218,-0.0236,-0.0216,-0.0216,-0.0216,-0.0216,-0.0216,-0.0395,-0.0385,-0.0372,-0.0357,-0.0347,-0.0336,-0.0326,-0.0317,-0.0304,-0.0287,-0.0282,-0.0266,-0.0252,-0.023,-0.0221,-0.0208,-0.0208,-0.0204,-0.0204,-0.0203,-0.0203,-0.0222,-0.0205,-0.0205,-0.0205,-0.0205,-0.0205,0,-0.0379,-0.037,-0.0357,-0.0341,-0.033,-0.0328,-0.0314,-0.0305,-0.0291,-0.0279,-0.0266,-0.0249,-0.0234,-0.0221,-0.0206,-0.0198,-0.0196,-0.0194,-0.0195,-0.0193,-0.0204,-0.0207,-0.0197,-0.0197,-0.0197,-0.0197,-0.0197,-0.0197,-0.037,-0.0354,-0.0348,-0.0327,-0.0318,-0.0303,-0.0296,-0.0286,-0.0276,-0.0257,-0.0245,-0.0237,-0.0224,-0.0208,-0.0195,-0.0191,-0.0186,-0.0185,-0.0182,-0.0191,-0.0192,-0.0193,-0.0197,-0.0184,-0.0184,-0.0172,-0.0172,-0.0172]},{"header":{"parameterUnit":"m.s-1","parameterCategory":1,"la1":30.2991,"la2":30.254,"lo1":-89.0895,"lo2":-89.0444,"dy":0.0017,"dx":0.0017,"nx":28,"ny":28,"refTime":"2024-07-06T21:00:00:Z","depth":0,"parameterNumber":3,"parameterNumberName":"V-component_of_WINDS"},"data":[0,0,0,0,0,0,0,0,0,0,0,0,0,0,0,0,0,0,0,0,0,0,0,0,0,0,0,0,0,0,0,0,0,0,0,0,0,0,0,0,0,0,0,0,0,0,0,0,0,0,0,0,0,0,0,0,0,0,4.7086,4.7086,0,4.7128,4.7129,4.7129,4.7064,4.7062,4.706,4.7057,4.7096,4.71,4.7103,0,0,0,0,0,0,0,0,0,0,0,0,0,4.6943,4.6946,4.7086,4.7086,4.7087,4.7128,4.7129,4.7129,4.7064,4.7062,4.7059,4.7056,4.7095,4.7099,4.7103,0,0,0,0,0,0,0,0,0,0,0,0,0,4.6997,4.6947,4.7086,4.706,4.7058,4.7128,4.7129,4.7129,4.7065,4.7062,4.7058,4.7055,4.7094,4.7099,4.7103,4.72,0,0,4.7118,4.712,0,0,0,0,0,0,0,0,4.6994,4.7003,4.7063,4.7061,4.7059,4.7087,4.7093,4.7153,4.7066,4.7062,4.7057,4.7053,4.7096,4.71,4.7115,4.7202,4.7203,4.7118,4.7121,4.7123,4.7124,0,0,0,0,0,0,0,4.6991,4.7,4.7102,4.7064,4.7062,4.7044,4.7048,4.7104,4.7097,4.7062,4.7058,4.7064,4.7094,4.7111,4.7116,4.7204,4.7118,4.7122,4.7125,4.7127,4.737,4.7373,0,0,0,0,0,0,4.6991,4.6998,4.7101,4.7104,4.7018,4.7049,4.7054,4.7082,4.7096,4.7096,4.7066,4.706,4.7105,4.711,4.7117,4.723,4.7123,4.7127,4.713,4.7366,4.737,4.7374,0,0,0,0,0,0,4.6988,4.7001,4.7099,4.7049,4.7061,4.7055,4.7087,4.7084,4.7101,4.71,4.7098,4.7085,4.7102,4.711,4.718,4.723,4.713,4.7134,4.7362,4.7367,4.7372,4.7457,0,0,0,0,0,0,4.6984,4.7,4.7038,4.7051,4.7064,4.7163,4.7091,4.7088,4.711,4.7102,4.7117,4.7116,4.71,4.7173,4.7184,4.7235,4.7138,4.7357,4.7364,4.7371,4.745,4.7465,4.7478,0,0,0,0,0,4.6979,4.706,4.704,4.7053,4.7111,4.7166,4.7173,4.7155,4.7114,4.7151,4.715,4.7115,4.7223,4.7181,4.7193,4.7246,4.7354,4.7362,4.737,4.7444,4.7462,4.7478,0,0,0,0,0,0,4.7051,4.7061,4.7039,4.7127,4.7146,4.7155,4.7201,4.7175,4.7205,4.7197,4.7171,4.7175,4.7249,4.7254,4.7207,4.7339,4.7281,4.7292,4.7333,4.7351,4.7364,4.7361,4.7141,0,0,0,0,0,4.7078,4.7123,4.7128,4.7204,4.7216,4.7207,4.723,4.7214,4.7233,4.7241,4.7245,4.7263,4.73,4.7326,4.736,4.745,4.7452,4.7493,4.7506,4.7518,4.7528,4.7574,4.7592,4.7401,4.7401,4.7401,0,0,4.7132,4.7143,4.7173,4.7219,4.7233,4.7278,4.7214,4.7266,4.7299,4.7248,4.7314,4.7317,4.7336,4.7416,4.7451,4.7422,4.7581,4.7528,4.7538,4.7541,4.7584,4.7602,4.7619,4.7407,4.7406,4.7405,0,0,4.7254,4.7268,4.7332,4.7347,4.7368,4.7362,4.7378,4.7391,4.7391,4.7457,4.7419,4.7458,4.7524,4.7538,4.7554,4.7681,4.765,4.7693,4.7766,4.7811,4.7826,4.784,4.7884,4.79,4.7703,4.7703,4.7703,0,4.7319,4.7388,4.7368,4.7423,4.7443,4.74,4.7464,4.7479,4.751,4.7525,4.7492,4.7574,4.7583,4.7665,4.7696,4.7711,4.7726,4.7691,4.7826,4.7839,4.7851,4.7893,4.791,4.7708,4.7707,4.7707,4.7706,0,4.7465,4.7514,4.7563,4.7596,4.7622,4.7681,4.7668,4.7697,4.7679,4.7675,4.7742,4.7752,4.7787,4.7806,4.7788,4.7885,4.7866,4.7831,4.7772,4.7875,4.7914,4.793,4.7715,4.7713,4.7712,4.7711,0,0,4.7635,4.7656,4.7674,4.7688,4.7708,4.7744,4.78,4.7836,4.786,4.7883,4.7928,4.7985,4.7952,4.797,4.7953,4.7993,4.8092,4.7952,4.7952,4.7977,4.8198,4.8225,4.8244,4.8071,4.8074,4.8077,4.8196,0,4.7756,4.7855,4.7838,4.7933,4.7977,4.7936,4.7984,4.8001,4.7999,4.8034,4.8031,4.8072,4.8025,4.8036,4.8074,4.8072,4.8136,4.8063,4.8112,4.8114,4.8109,4.8264,4.8293,4.8405,4.8212,4.8214,4.8216,0,4.7911,4.7941,4.8041,4.8053,4.8071,4.8115,4.8146,4.8181,4.8198,4.8193,4.8214,4.8189,4.8243,4.8184,4.8258,4.8209,4.8227,4.8229,4.8233,4.8236,4.8171,4.8271,4.8441,4.8458,4.824,4.8238,4.8236,0,4.8024,4.8088,4.8156,4.8169,4.8185,4.8217,4.8225,4.8239,4.8262,4.8288,4.8302,4.8334,4.8352,4.8376,4.836,4.8319,4.8436,4.8376,4.8432,4.8433,4.8459,4.8457,4.8633,4.8472,4.8472,4.8471,4.8471,0,4.8161,4.8223,4.8207,4.8249,4.8316,4.8296,4.8363,4.8366,4.8379,4.8419,4.8385,4.8423,4.84,4.8436,4.8423,4.8485,4.8493,4.849,4.8486,4.8493,4.8493,4.8505,4.8496,4.8476,4.8475,4.8474,4.8473,0,4.8298,4.829,4.8361,4.8371,4.8374,4.8424,4.8431,4.8469,4.8464,4.8516,4.8526,4.8519,4.8559,4.8546,4.8588,4.858,4.8659,4.8645,4.8653,4.865,4.8707,4.8701,4.8896,4.892,4.8744,4.8745,4.8747,0,4.8386,4.8433,4.8448,4.8473,4.8484,4.8525,4.8548,4.8528,4.8553,4.8576,4.8611,4.8648,4.8677,4.8743,4.8741,4.8773,4.8759,4.8825,4.8763,4.8769,4.8759,4.8756,4.876,4.8837,4.8839,4.8841,4.8842,0,4.8542,4.8536,4.8571,4.8605,4.8633,4.8658,4.868,4.8702,4.8684,4.8713,4.8755,4.8777,4.8821,4.8859,4.8888,4.8894,4.8865,4.8861,4.8876,4.8883,4.8886,4.8885,4.8686,4.8857,4.8855,4.8854,4.8853,4.8853,4.8657,4.8697,4.8714,4.8753,4.8768,4.8789,4.8825,4.8825,4.886,4.8895,4.8881,4.8928,4.8943,4.8979,4.8989,4.9025,4.8999,4.9021,4.9026,4.9032,4.9039,4.8881,4.903,4.903,4.9029,4.9029,4.9028,0,4.8811,4.882,4.8857,4.8889,4.892,4.8891,4.8913,4.8941,4.8983,4.9,4.9029,4.9076,4.9112,4.9112,4.9145,4.9173,4.9161,4.9183,4.918,4.9182,4.906,4.9044,4.9192,4.9192,4.9192,4.9192,4.9192,4.9192,4.8895,4.8961,4.8956,4.9027,4.9035,4.9082,4.9097,4.9116,4.9129,4.9184,4.9214,4.9214,4.9223,4.9256,4.9287,4.9286,4.93,4.9326,4.932,4.9207,4.919,4.9175,4.9159,4.933,4.933,4.9439,4.944,4.9441]}]]